| time (UTC) | temp F | wind direction | speed MPH | gust MPH | rain 1hr in | rain 24hr in | rain mn in | humidity % | barometer mb |
| 20260506134043 | 75 | 23 | 8.0 | 13.0 | 0.00 | 0.00 | 0.00 | 75 | 1022.2 |
| 20260506133544 | 75 | 360 | 7.0 | 13.0 | 0.00 | 0.00 | 0.00 | 75 | 1022.1 |
| 20260506133044 | 74 | 343 | 8.0 | 13.0 | 0.00 | 0.00 | 0.00 | 75 | 1022.3 |
| 20260506132607 | 74 | 360 | 9.0 | 15.0 | 0.00 | 0.00 | 0.00 | 75 | 1022.3 |
| 20260506132046 | 74 | 1 | 8.0 | 15.0 | 0.00 | 0.00 | 0.00 | 77 | 1022.3 |
| 20260506131528 | 74 | 7 | 7.0 | 12.0 | 0.00 | 0.00 | 0.00 | 77 | 1022.3 |
| 20260506131049 | 74 | 20 | 8.0 | 13.0 | 0.00 | 0.00 | 0.00 | 77 | 1022.5 |
| 20260506130530 | 73 | 359 | 8.0 | 15.0 | 0.00 | 0.00 | 0.00 | 77 | 1022.6 |
| 20260506130053 | 73 | 1 | 8.0 | 13.0 | 0.00 | 0.00 | 0.00 | 78 | 1022.5 |
| 20260506125535 | 73 | 1 | 6.0 | 13.0 | 0.00 | 0.00 | 0.00 | 78 | 1022.7 |
| 20260506125034 | 72 | 8 | 8.0 | 13.0 | 0.00 | 0.00 | 0.00 | 78 | 1022.7 |
| 20260506124532 | 72 | 1 | 8.0 | 12.0 | 0.00 | 0.00 | 0.00 | 79 | 1022.5 |
| 20260506124033 | 72 | 30 | 8.0 | 12.0 | 0.00 | 0.00 | 0.00 | 79 | 1022.6 |
| 20260506123553 | 72 | 359 | 7.0 | 12.0 | 0.00 | 0.00 | 0.00 | 79 | 1022.7 |
| 20260506123032 | 72 | 12 | 8.0 | 11.0 | 0.00 | 0.00 | 0.00 | 79 | 1022.6 |
| 20260506122538 | 72 | 8 | 7.0 | 10.0 | 0.00 | 0.00 | 0.00 | 79 | 1022.7 |
| 20260506122039 | 72 | 360 | 7.0 | 10.0 | 0.00 | 0.00 | 0.00 | 79 | 1022.7 |
| 20260506121539 | 71 | 17 | 5.0 | 10.0 | 0.00 | 0.00 | 0.00 | 80 | 1022.5 |
| 20260506121044 | 71 | 1 | 7.0 | 10.0 | 0.00 | 0.00 | 0.00 | 80 | 1022.5 |
| 20260506120524 | 71 | 25 | 6.0 | 8.0 | 0.00 | 0.00 | 0.00 | 81 | 1022.4 |
| 20260506120053 | 70 | 360 | 5.0 | 9.0 | 0.00 | 0.00 | 0.00 | 81 | 1022.5 |
| 20260506115533 | 70 | 356 | 6.0 | 9.0 | 0.00 | 0.00 | 0.00 | 82 | 1022.5 |
| 20260506115037 | 70 | 13 | 5.0 | 9.0 | 0.00 | 0.00 | 0.00 | 82 | 1022.5 |
| 20260506114538 | 70 | 8 | 5.0 | 9.0 | 0.00 | 0.00 | 0.00 | 82 | 1022.4 |
| 20260506114039 | 70 | 5 | 6.0 | 10.0 | 0.00 | 0.00 | 0.00 | 82 | 1022.4 |
| 20260506113544 | 69 | 354 | 6.0 | 10.0 | 0.00 | 0.00 | 0.00 | 82 | 1022.4 |
| 20260506113028 | 69 | 1 | 7.0 | 9.0 | 0.00 | 0.00 | 0.00 | 82 | 1022.3 |
| 20260506112534 | 69 | 1 | 6.0 | 8.0 | 0.00 | 0.00 | 0.00 | 83 | 1022.3 |
| 20260506112042 | 69 | 352 | 5.0 | 7.0 | 0.00 | 0.00 | 0.00 | 83 | 1022.3 |
| 20260506111547 | 68 | 11 | 4.0 | 7.0 | 0.00 | 0.00 | 0.00 | 84 | 1022.2 |
| 20260506111030 | 68 | 8 | 5.0 | 8.0 | 0.00 | 0.00 | 0.00 | 85 | 1022.2 |
| 20260506110532 | 67 | 356 | 4.0 | 8.0 | 0.00 | 0.00 | 0.00 | 86 | 1022.2 |
| 20260506110035 | 67 | 1 | 5.0 | 7.0 | 0.00 | 0.00 | 0.00 | 86 | 1022.2 |
| 20260506105538 | 67 | 354 | 4.0 | 7.0 | 0.00 | 0.00 | 0.00 | 86 | 1022.1 |
| 20260506104544 | 67 | 360 | 3.0 | 7.0 | 0.00 | 0.00 | 0.00 | 86 | 1022.0 |
| 20260506104046 | 67 | 359 | 3.0 | 7.0 | 0.00 | 0.00 | 0.00 | 86 | 1021.8 |
| 20260506103530 | 67 | 28 | 4.0 | 7.0 | 0.00 | 0.00 | 0.00 | 86 | 1021.8 |
| 20260506103035 | 67 | 354 | 4.0 | 7.0 | 0.00 | 0.00 | 0.00 | 86 | 1021.8 |
| 20260506102601 | 67 | 1 | 4.0 | 8.0 | 0.00 | 0.00 | 0.00 | 86 | 1021.7 |
| 20260506102101 | 67 | 8 | 5.0 | 8.0 | 0.00 | 0.00 | 0.00 | 86 | 1021.7 |
| 20260506101542 | 67 | 331 | 5.0 | 10.0 | 0.00 | 0.00 | 0.00 | 86 | 1021.7 |
| 20260506101045 | 67 | 13 | 6.0 | 10.0 | 0.00 | 0.00 | 0.00 | 86 | 1021.7 |
| 20260506100531 | 66 | 9 | 4.0 | 7.0 | 0.00 | 0.00 | 0.00 | 86 | 1021.7 |
| 20260506100039 | 66 | 9 | 4.0 | 7.0 | 0.00 | 0.00 | 0.00 | 86 | 1021.7 |
| 20260506095537 | 66 | 5 | 3.0 | 6.0 | 0.00 | 0.00 | 0.00 | 86 | 1021.7 |
| 20260506095043 | 67 | 15 | 3.0 | 6.0 | 0.00 | 0.00 | 0.00 | 86 | 1021.7 |
| 20260506094527 | 67 | 1 | 4.0 | 6.0 | 0.00 | 0.00 | 0.00 | 86 | 1021.7 |
| 20260506094031 | 67 | 1 | 4.0 | 6.0 | 0.00 | 0.00 | 0.00 | 86 | 1021.6 |
| 20260506093533 | 66 | 1 | 4.0 | 6.0 | 0.00 | 0.00 | 0.00 | 86 | 1021.6 |
| 20260506093035 | 67 | 360 | 3.0 | 5.0 | 0.00 | 0.00 | 0.00 | 86 | 1021.7 |
| 20260506092536 | 67 | 359 | 3.0 | 7.0 | 0.00 | 0.00 | 0.00 | 86 | 1021.5 |
| 20260506092039 | 67 | 360 | 3.0 | 6.0 | 0.00 | 0.00 | 0.00 | 86 | 1021.5 |
| 20260506091542 | 67 | 1 | 3.0 | 6.0 | 0.00 | 0.00 | 0.00 | 86 | 1021.3 |
| 20260506091104 | 67 | 5 | 4.0 | 7.0 | 0.00 | 0.00 | 0.00 | 86 | 1021.3 |
| 20260506090527 | 67 | 20 | 4.0 | 7.0 | 0.00 | 0.00 | 0.00 | 86 | 1021.2 |
| 20260506090035 | 67 | 359 | 3.0 | 6.0 | 0.00 | 0.00 | 0.00 | 86 | 1021.2 |
| 20260506085541 | 67 | 356 | 5.0 | 6.0 | 0.00 | 0.00 | 0.00 | 86 | 1021.2 |
| 20260506085104 | 67 | 1 | 4.0 | 6.0 | 0.00 | 0.00 | 0.00 | 86 | 1021.4 |
| 20260506084546 | 67 | 9 | 3.0 | 6.0 | 0.00 | 0.00 | 0.00 | 85 | 1021.4 |
| 20260506084028 | 67 | 21 | 4.0 | 6.0 | 0.00 | 0.00 | 0.00 | 85 | 1021.4 |
| 20260506083533 | 67 | 13 | 3.0 | 6.0 | 0.00 | 0.00 | 0.00 | 85 | 1021.3 |
| 20260506083035 | 67 | 1 | 4.0 | 6.0 | 0.00 | 0.00 | 0.00 | 85 | 1021.2 |
| 20260506082542 | 67 | 359 | 4.0 | 5.0 | 0.00 | 0.00 | 0.00 | 84 | 1021.2 |
| 20260506082026 | 67 | 354 | 4.0 | 7.0 | 0.00 | 0.00 | 0.00 | 84 | 1021.2 |
| 20260506081551 | 67 | 4 | 4.0 | 7.0 | 0.00 | 0.00 | 0.00 | 84 | 1021.2 |
| 20260506081034 | 67 | 3 | 4.0 | 6.0 | 0.00 | 0.00 | 0.00 | 84 | 1021.2 |
| 20260506080538 | 67 | 1 | 3.0 | 6.0 | 0.00 | 0.00 | 0.00 | 84 | 1021.2 |
| 20260506073101 | 67 | 1 | 4.0 | 5.0 | 0.00 | 0.00 | 0.00 | 84 | 1021.4 |
| 20260506072544 | 67 | 1 | 4.0 | 6.0 | 0.00 | 0.00 | 0.00 | 84 | 1021.3 |
| 20260506072027 | 67 | 359 | 3.0 | 6.0 | 0.00 | 0.00 | 0.00 | 83 | 1021.3 |
| 20260506071531 | 67 | 360 | 4.0 | 6.0 | 0.00 | 0.00 | 0.00 | 83 | 1021.4 |
| 20260506071032 | 67 | 335 | 4.0 | 6.0 | 0.00 | 0.00 | 0.00 | 83 | 1021.4 |
| 20260506070533 | 67 | 4 | 4.0 | 7.0 | 0.00 | 0.00 | 0.00 | 83 | 1021.4 |
| 20260506062041 | 67 | 345 | 3.0 | 5.0 | 0.00 | 0.00 | 0.00 | 82 | 1021.7 |
| 20260506061544 | 67 | 359 | 3.0 | 5.0 | 0.00 | 0.00 | 0.00 | 82 | 1021.7 |
| 20260506061046 | 68 | 1 | 3.0 | 5.0 | 0.00 | 0.00 | 0.00 | 83 | 1021.7 |
| 20260506060528 | 68 | 359 | 4.0 | 6.0 | 0.00 | 0.00 | 0.00 | 83 | 1021.8 |
| 20260506051025 | 68 | 7 | 5.0 | 6.0 | 0.00 | 0.00 | 0.00 | 82 | 1021.8 |
| 20260506050530 | 68 | 14 | 4.0 | 6.0 | 0.00 | 0.00 | 0.00 | 82 | 1021.7 |
| 20260506045108 | 68 | 1 | 4.0 | 6.0 | 0.00 | 0.00 | 0.00 | 82 | 1021.8 |
| 20260506044528 | 68 | 11 | 4.0 | 6.0 | 0.00 | 0.00 | 0.00 | 82 | 1021.7 |
| 20260506044034 | 68 | 33 | 4.0 | 6.0 | 0.00 | 0.00 | 0.00 | 82 | 1021.6 |
| 20260506043537 | 68 | 1 | 4.0 | 6.0 | 0.00 | 0.00 | 0.00 | 83 | 1021.7 |
| 20260506043042 | 68 | 17 | 4.0 | 6.0 | 0.00 | 0.00 | 0.00 | 83 | 1021.6 |
| 20260506042528 | 68 | 15 | 4.0 | 6.0 | 0.00 | 0.00 | 0.00 | 83 | 1021.7 |
| 20260506042031 | 68 | 1 | 4.0 | 6.0 | 0.00 | 0.00 | 0.00 | 84 | 1021.7 |
| 20260506041535 | 68 | 11 | 4.0 | 5.0 | 0.00 | 0.00 | 0.00 | 84 | 1021.6 |
| 20260506041038 | 67 | 1 | 4.0 | 5.0 | 0.00 | 0.00 | 0.00 | 84 | 1021.6 |
| 20260506040541 | 67 | 1 | 4.0 | 5.0 | 0.00 | 0.00 | 0.00 | 85 | 1021.6 |
| 20260506040044 | 67 | 358 | 3.0 | 4.0 | 0.00 | 0.00 | 0.00 | 84 | 1021.5 |
| 20260506035547 | 67 | 1 | 3.0 | 4.0 | 0.00 | 0.00 | 0.00 | 85 | 1021.4 |
| 20260506035028 | 67 | 1 | 3.0 | 4.0 | 0.00 | 0.00 | 0.00 | 85 | 1021.3 |
| 20260506034532 | 67 | 6 | 3.0 | 4.0 | 0.00 | 0.00 | 0.00 | 85 | 1021.3 |
| 20260506034035 | 68 | 1 | 3.0 | 4.0 | 0.00 | 0.00 | 0.00 | 84 | 1021.3 |
| 20260506033541 | 68 | 359 | 2.0 | 4.0 | 0.00 | 0.00 | 0.00 | 84 | 1021.4 |
| 20260506033045 | 68 | 3 | 3.0 | 4.0 | 0.00 | 0.00 | 0.00 | 84 | 1021.3 |
| 20260506032533 | 68 | 360 | 3.0 | 4.0 | 0.00 | 0.00 | 0.00 | 84 | 1021.2 |
| 20260506032057 | 68 | 1 | 2.0 | 4.0 | 0.00 | 0.00 | 0.00 | 84 | 1021.2 |
| 20260506031540 | 68 | 359 | 2.0 | 4.0 | 0.00 | 0.00 | 0.00 | 84 | 1021.1 |
| 20260506031024 | 68 | 3 | 2.0 | 4.0 | 0.00 | 0.00 | 0.00 | 84 | 1021.1 |
| 20260506030530 | 68 | 358 | 2.0 | 4.0 | 0.00 | 0.00 | 0.00 | 84 | 1021.2 |
| 20260506030035 | 68 | 5 | 2.0 | 4.0 | 0.00 | 0.00 | 0.00 | 83 | 1021.2 |
| 20260506025538 | 68 | 360 | 2.0 | 3.0 | 0.00 | 0.00 | 0.00 | 83 | 1021.2 |
| 20260506025041 | 69 | 359 | 2.0 | 4.0 | 0.00 | 0.00 | 0.00 | 83 | 1021.2 |
| 20260506024543 | 69 | 1 | 3.0 | 4.0 | 0.00 | 0.00 | 0.00 | 83 | 1021.2 |
| 20260506024027 | 69 | 1 | 3.0 | 3.0 | 0.00 | 0.00 | 0.00 | 82 | 1021.1 |
| 20260506023531 | 69 | 1 | 2.0 | 4.0 | 0.00 | 0.00 | 0.00 | 82 | 1021.0 |
| 20260506023035 | 69 | 1 | 2.0 | 4.0 | 0.00 | 0.00 | 0.00 | 82 | 1021.0 |
| 20260506022556 | 69 | 4 | 2.0 | 4.0 | 0.00 | 0.00 | 0.00 | 82 | 1020.9 |
| 20260506022028 | 69 | 1 | 3.0 | 4.0 | 0.00 | 0.00 | 0.00 | 83 | 1020.9 |
| 20260506021533 | 69 | 5 | 3.0 | 5.0 | 0.00 | 0.00 | 0.00 | 82 | 1021.1 |
| 20260506021035 | 69 | 1 | 3.0 | 5.0 | 0.00 | 0.00 | 0.00 | 82 | 1021.3 |
| 20260506020538 | 69 | 8 | 2.0 | 4.0 | 0.00 | 0.00 | 0.00 | 82 | 1021.3 |
| 20260506020041 | 69 | 17 | 2.0 | 4.0 | 0.00 | 0.00 | 0.00 | 82 | 1021.4 |
| 20260506015544 | 70 | 41 | 2.0 | 3.0 | 0.00 | 0.00 | 0.00 | 81 | 1021.4 |
| 20260506015026 | 70 | 1 | 2.0 | 4.0 | 0.00 | 0.00 | 0.00 | 81 | 1021.4 |
| 20260506014530 | 70 | 8 | 2.0 | 4.0 | 0.00 | 0.00 | 0.00 | 81 | 1021.3 |
| 20260506014034 | 70 | 1 | 3.0 | 4.0 | 0.00 | 0.00 | 0.00 | 81 | 1021.3 |
| 20260506013537 | 70 | 18 | 3.0 | 4.0 | 0.00 | 0.00 | 0.00 | 81 | 1021.2 |
| 20260506013041 | 70 | 1 | 3.0 | 4.0 | 0.00 | 0.00 | 0.00 | 81 | 1021.3 |
| 20260506012601 | 70 | 6 | 2.0 | 4.0 | 0.00 | 0.00 | 0.00 | 81 | 1021.3 |
| 20260506012043 | 70 | 13 | 3.0 | 4.0 | 0.00 | 0.00 | 0.00 | 81 | 1021.3 |
| 20260506011531 | 70 | 359 | 2.0 | 3.0 | 0.00 | 0.00 | 0.00 | 80 | 1021.3 |
| 20260506011034 | 71 | 1 | 2.0 | 3.0 | 0.00 | 0.00 | 0.00 | 80 | 1021.2 |
| 20260506010537 | 71 | 1 | 2.0 | 4.0 | 0.00 | 0.00 | 0.00 | 79 | 1021.2 |
| 20260506010043 | 71 | 3 | 2.0 | 4.0 | 0.00 | 0.00 | 0.00 | 79 | 1021.2 |
| 20260506005529 | 71 | 19 | 2.0 | 4.0 | 0.00 | 0.00 | 0.00 | 79 | 1021.2 |
| 20260506005035 | 71 | 359 | 3.0 | 3.0 | 0.00 | 0.00 | 0.00 | 79 | 1021.2 |
| 20260506004538 | 71 | 350 | 2.0 | 3.0 | 0.00 | 0.00 | 0.00 | 79 | 1021.3 |
| 20260506004040 | 71 | 1 | 2.0 | 3.0 | 0.00 | 0.00 | 0.00 | 79 | 1021.2 |
| 20260506003542 | 71 | 13 | 2.0 | 3.0 | 0.00 | 0.00 | 0.00 | 79 | 1021.3 |
| 20260506003045 | 71 | 8 | 2.0 | 3.0 | 0.00 | 0.00 | 0.00 | 79 | 1021.2 |
| 20260506002527 | 72 | 1 | 2.0 | 6.0 | 0.00 | 0.00 | 0.00 | 78 | 1021.3 |
| 20260506002031 | 72 | 31 | 3.0 | 6.0 | 0.00 | 0.00 | 0.00 | 78 | 1021.3 |
| 20260506001538 | 72 | 27 | 4.0 | 5.0 | 0.00 | 0.00 | 0.00 | 78 | 1021.3 |
| 20260506001042 | 72 | 18 | 3.0 | 5.0 | 0.00 | 0.00 | 0.00 | 77 | 1021.2 |
| 20260506000545 | 73 | 22 | 2.0 | 5.0 | 0.00 | 0.00 | 0.00 | 76 | 1021.2 |
| 20260506000030 | 73 | 23 | 3.0 | 5.0 | 0.00 | 0.00 | 0.00 | 76 | 1021.2 |
| 20260505235534 | 73 | 27 | 3.0 | 5.0 | 0.00 | 0.00 | 0.00 | 76 | 1021.2 |
| 20260505235054 | 73 | 22 | 3.0 | 5.0 | 0.00 | 0.00 | 0.00 | 75 | 1021.2 |
| 20260505234538 | 73 | 39 | 3.0 | 5.0 | 0.00 | 0.00 | 0.00 | 75 | 1021.2 |
| 20260505234037 | 73 | 30 | 3.0 | 5.0 | 0.00 | 0.00 | 0.00 | 75 | 1021.2 |
| 20260505233540 | 73 | 37 | 3.0 | 5.0 | 0.00 | 0.00 | 0.00 | 75 | 1021.1 |
| 20260505233103 | 72 | 31 | 3.0 | 5.0 | 0.00 | 0.00 | 0.00 | 75 | 1021.1 |
| 20260505232527 | 72 | 57 | 3.0 | 4.0 | 0.00 | 0.00 | 0.00 | 75 | 1021.2 |
| 20260505232029 | 72 | 13 | 3.0 | 4.0 | 0.00 | 0.00 | 0.00 | 75 | 1021.3 |
| 20260505231535 | 71 | 27 | 3.0 | 4.0 | 0.00 | 0.00 | 0.00 | 77 | 1021.3 |
| 20260505231039 | 71 | 8 | 0.0 | 0.0 | 0.00 | 0.00 | 0.00 | 77 | 1021.3 |
| 20260505230601 | 71 | 347 | 0.0 | 0.0 | 0.00 | 0.08 | 0.00 | 77 | 1021.3 |
| 20260505230026 | 71 | 347 | 0.0 | 0.0 | 0.00 | 0.08 | 0.00 | 76 | 1021.3 |
| 20260505225534 | 71 | 345 | 0.0 | 0.0 | 0.00 | 0.08 | 0.00 | 76 | 1021.3 |
| 20260505225038 | 71 | 334 | 0.0 | 0.0 | 0.00 | 0.08 | 0.00 | 76 | 1021.2 |
| 20260505224542 | 72 | 349 | 0.0 | 0.0 | 0.00 | 0.08 | 0.00 | 76 | 1021.3 |
| 20260505224026 | 72 | 356 | 0.0 | 0.0 | 0.00 | 0.08 | 0.00 | 76 | 1021.3 |
| 20260505223530 | 72 | 356 | 0.0 | 0.0 | 0.00 | 0.08 | 0.00 | 75 | 1021.3 |
| 20260505223033 | 72 | 353 | 0.0 | 0.0 | 0.00 | 0.08 | 0.00 | 76 | 1021.2 |
| 20260505222552 | 72 | 349 | 0.0 | 0.0 | 0.00 | 0.08 | 0.00 | 75 | 1021.2 |
| 20260505222035 | 72 | 343 | 0.0 | 2.0 | 0.00 | 0.08 | 0.00 | 75 | 1021.2 |
| 20260505221537 | 72 | 343 | 1.0 | 4.0 | 0.00 | 0.08 | 0.00 | 75 | 1021.2 |
| 20260505221059 | 72 | 356 | 2.0 | 4.0 | 0.00 | 0.08 | 0.00 | 74 | 1021.2 |
| 20260505220559 | 72 | 352 | 2.0 | 3.0 | 0.00 | 0.08 | 0.00 | 74 | 1021.2 |
| 20260505220027 | 72 | 347 | 3.0 | 3.0 | 0.00 | 0.08 | 0.00 | 74 | 1021.1 |
| 20260505215529 | 72 | 349 | 2.0 | 3.0 | 0.00 | 0.08 | 0.00 | 74 | 1021.0 |
| 20260505215033 | 72 | 346 | 2.0 | 3.0 | 0.00 | 0.08 | 0.00 | 74 | 1021.0 |
| 20260505214537 | 72 | 346 | 2.0 | 3.0 | 0.00 | 0.08 | 0.00 | 74 | 1021.0 |
| 20260505214046 | 72 | 346 | 2.0 | 3.0 | 0.00 | 0.08 | 0.00 | 73 | 1020.9 |
| 20260505213529 | 73 | 345 | 2.0 | 3.0 | 0.00 | 0.08 | 0.00 | 73 | 1020.9 |
| 20260505213031 | 73 | 345 | 2.0 | 3.0 | 0.00 | 0.08 | 0.00 | 72 | 1020.9 |
| 20260505212534 | 73 | 345 | 2.0 | 3.0 | 0.00 | 0.08 | 0.00 | 72 | 1020.9 |
| 20260505212037 | 73 | 345 | 2.0 | 3.0 | 0.00 | 0.08 | 0.00 | 72 | 1020.9 |
| 20260505211543 | 73 | 345 | 2.0 | 3.0 | 0.00 | 0.08 | 0.00 | 72 | 1020.9 |
| 20260505211104 | 73 | 345 | 2.0 | 3.0 | 0.00 | 0.08 | 0.00 | 71 | 1020.8 |
| 20260505210546 | 74 | 345 | 2.0 | 3.0 | 0.00 | 0.12 | 0.00 | 70 | 1020.9 |
| 20260505210032 | 74 | 345 | 1.0 | 2.0 | 0.00 | 0.12 | 0.00 | 70 | 1020.8 |
| 20260505205535 | 74 | 345 | 1.0 | 2.0 | 0.00 | 0.12 | 0.00 | 69 | 1020.9 |
| 20260505205038 | 75 | 345 | 1.0 | 2.0 | 0.00 | 0.12 | 0.00 | 68 | 1020.9 |
| 20260505204541 | 76 | 345 | 1.0 | 2.0 | 0.00 | 0.12 | 0.00 | 67 | 1020.8 |
| 20260505204103 | 77 | 345 | 1.0 | 4.0 | 0.00 | 0.12 | 0.00 | 65 | 1020.8 |
| 20260505203546 | 77 | 342 | 2.0 | 4.0 | 0.00 | 0.12 | 0.00 | 63 | 1020.8 |
| 20260505203030 | 78 | 360 | 2.0 | 4.0 | 0.00 | 0.12 | 0.00 | 61 | 1020.8 |
| 20260505202533 | 78 | 331 | 2.0 | 5.0 | 0.00 | 0.12 | 0.00 | 61 | 1020.8 |
| 20260505202035 | 78 | 357 | 2.0 | 7.0 | 0.00 | 0.12 | 0.00 | 60 | 1020.8 |
| 20260505201600 | 78 | 356 | 3.0 | 7.0 | 0.00 | 0.12 | 0.00 | 59 | 1020.8 |
| 20260505201040 | 79 | 16 | 3.0 | 6.0 | 0.00 | 0.12 | 0.00 | 59 | 1020.8 |
| 20260505200542 | 79 | 13 | 5.0 | 10.0 | 0.00 | 0.20 | 0.00 | 59 | 1020.8 |
| 20260505195543 | 79 | 342 | 2.0 | 7.0 | 0.00 | 0.20 | 0.00 | 60 | 1020.7 |
| 20260505195025 | 79 | 327 | 4.0 | 7.0 | 0.00 | 0.20 | 0.00 | 60 | 1020.6 |
| 20260505194529 | 79 | 337 | 3.0 | 8.0 | 0.00 | 0.20 | 0.00 | 61 | 1020.6 |
| 20260505194033 | 79 | 15 | 5.0 | 9.0 | 0.00 | 0.20 | 0.00 | 60 | 1020.6 |
| 20260505193556 | 80 | 1 | 4.0 | 9.0 | 0.00 | 0.20 | 0.00 | 60 | 1020.7 |
| 20260505193041 | 80 | 2 | 5.0 | 8.0 | 0.00 | 0.20 | 0.00 | 59 | 1020.6 |
| 20260505192544 | 80 | 357 | 4.0 | 8.0 | 0.00 | 0.20 | 0.00 | 60 | 1020.6 |
| 20260505192027 | 80 | 291 | 4.0 | 8.0 | 0.00 | 0.20 | 0.00 | 60 | 1020.6 |
| 20260505191036 | 80 | 13 | 4.0 | 8.0 | 0.00 | 0.20 | 0.00 | 61 | 1020.5 |
| 20260505190538 | 81 | 291 | 5.0 | 8.0 | 0.00 | 0.59 | 0.00 | 60 | 1020.5 |
| 20260505190100 | 81 | 335 | 3.0 | 6.0 | 0.00 | 0.59 | 0.00 | 60 | 1020.5 |
| 20260505185541 | 80 | 11 | 3.0 | 9.0 | 0.00 | 0.59 | 0.00 | 60 | 1020.5 |
| 20260505185057 | 80 | 359 | 5.0 | 10.0 | 0.00 | 0.59 | 0.00 | 60 | 1020.6 |
| 20260505184556 | 80 | 310 | 3.0 | 11.0 | 0.00 | 0.59 | 0.00 | 60 | 1020.6 |
| 20260505184100 | 80 | 9 | 4.0 | 11.0 | 0.00 | 0.59 | 0.00 | 61 | 1020.5 |
| 20260505183540 | 80 | 351 | 4.0 | 10.0 | 0.00 | 0.59 | 0.00 | 61 | 1020.5 |
| 20260505183044 | 80 | 343 | 7.0 | 10.0 | 0.00 | 0.59 | 0.00 | 61 | 1020.5 |
| 20260505182544 | 80 | 353 | 5.0 | 10.0 | 0.00 | 0.59 | 0.00 | 61 | 1020.5 |
| 20260505182106 | 80 | 306 | 7.0 | 10.0 | 0.00 | 0.59 | 0.00 | 61 | 1020.4 |
| 20260505181544 | 80 | 1 | 4.0 | 10.0 | 0.00 | 0.59 | 0.00 | 60 | 1020.4 |
| 20260505181103 | 80 | 359 | 4.0 | 9.0 | 0.00 | 0.59 | 0.00 | 61 | 1020.4 |
| 20260505180525 | 80 | 359 | 5.0 | 10.0 | 0.00 | 0.59 | 0.00 | 61 | 1020.4 |
| 20260505180050 | 80 | 306 | 7.0 | 10.0 | 0.00 | 0.59 | 0.00 | 61 | 1020.4 |
| 20260505175552 | 80 | 285 | 4.0 | 12.0 | 0.00 | 0.59 | 0.00 | 61 | 1020.4 |
| 20260505175033 | 80 | 307 | 8.0 | 12.0 | 0.00 | 0.59 | 0.00 | 60 | 1020.4 |
| 20260505174535 | 80 | 352 | 6.0 | 11.0 | 0.00 | 0.59 | 0.00 | 61 | 1020.4 |
| 20260505174038 | 80 | 11 | 6.0 | 11.0 | 0.00 | 0.59 | 0.00 | 61 | 1020.5 |
| 20260505173542 | 80 | 289 | 3.0 | 8.0 | 0.00 | 0.59 | 0.00 | 63 | 1020.5 |
| 20260505173041 | 80 | 344 | 5.0 | 9.0 | 0.00 | 0.59 | 0.00 | 61 | 1020.5 |
| 20260505172546 | 80 | 1 | 5.0 | 12.0 | 0.00 | 0.59 | 0.00 | 62 | 1020.5 |
| 20260505172027 | 80 | 1 | 6.0 | 13.0 | 0.00 | 0.59 | 0.00 | 64 | 1020.6 |
| 20260505171553 | 80 | 360 | 7.0 | 13.0 | 0.00 | 0.59 | 0.00 | 64 | 1020.6 |
| 20260505171034 | 80 | 358 | 6.0 | 11.0 | 0.00 | 0.59 | 0.00 | 64 | 1020.7 |
| 20260505170535 | 80 | 3 | 7.0 | 11.0 | 0.00 | 0.59 | 0.00 | 63 | 1020.8 |
| 20260505170038 | 80 | 329 | 6.0 | 10.0 | 0.00 | 0.59 | 0.00 | 64 | 1020.9 |
| 20260505165540 | 80 | 326 | 6.0 | 13.0 | 0.00 | 0.59 | 0.00 | 65 | 1020.9 |
| 20260505165059 | 79 | 359 | 5.0 | 13.0 | 0.00 | 0.59 | 0.00 | 64 | 1021.0 |
| 20260505164540 | 79 | 310 | 6.0 | 11.0 | 0.00 | 0.59 | 0.00 | 65 | 1021.0 |
| 20260505164043 | 79 | 1 | 7.0 | 12.0 | 0.00 | 0.59 | 0.00 | 66 | 1021.0 |
| 20260505163605 | 78 | 351 | 7.0 | 13.0 | 0.00 | 0.59 | 0.00 | 66 | 1021.0 |
| 20260505163105 | 78 | 322 | 8.0 | 13.0 | 0.00 | 0.59 | 0.00 | 67 | 1021.2 |
| 20260505162527 | 79 | 359 | 7.0 | 11.0 | 0.00 | 0.59 | 0.00 | 65 | 1021.3 |
| 20260505162030 | 79 | 352 | 5.0 | 9.0 | 0.00 | 0.59 | 0.00 | 66 | 1021.4 |
| 20260505161533 | 78 | 359 | 4.0 | 12.0 | 0.00 | 0.59 | 0.00 | 68 | 1021.4 |
| 20260505161034 | 78 | 340 | 6.0 | 12.0 | 0.00 | 0.59 | 0.00 | 67 | 1021.5 |
| 20260505160555 | 78 | 356 | 8.0 | 12.0 | 0.00 | 0.59 | 0.00 | 67 | 1021.5 |
| 20260505153046 | 77 | 328 | 5.0 | 14.0 | 0.00 | 0.59 | 0.00 | 69 | 1022.0 |
| 20260505152546 | 77 | 298 | 6.0 | 14.0 | 0.00 | 0.59 | 0.00 | 68 | 1022.0 |
| 20260505152029 | 77 | 296 | 6.0 | 11.0 | 0.00 | 0.59 | 0.00 | 69 | 1022.1 |
| 20260505151530 | 77 | 10 | 4.0 | 9.0 | 0.00 | 0.59 | 0.00 | 71 | 1022.2 |
| 20260505151034 | 77 | 276 | 5.0 | 10.0 | 0.00 | 0.59 | 0.00 | 70 | 1022.2 |
| 20260505150535 | 77 | 331 | 5.0 | 10.0 | 0.00 | 0.59 | 0.00 | 70 | 1022.2 |
| 20260505140531 | 73 | 18 | 5.0 | 9.0 | 0.00 | 0.59 | 0.00 | 79 | 1022.5 |